Regional Weather Roundup
Issued by NWS

Home | Current Version | Previous Version | Text Only | Print | Product List | Glossary On
Versions: 1 2 3 4 5 6 7 8 9 10 11 12 13 14 15 16 17 18 19 20 21 22 23 24 25 26 27 28 29 30 31 32 33 34 35 36 37 38 39 40 41 42 43 44 45 46 47 48 49 50
000
ASUS44 KFWD 241715
RWRTX
NORTH TEXAS HOURLY WEATHER ROUNDUP
NATIONAL WEATHER SERVICE FORT WORTH TX
1200 PM CDT FRI MAR 24 2017

NOTE: "FAIR" INDICATES FEW OR NO CLOUDS BELOW 12,000 FEET WITH NO
SIGNIFICANT WEATHER AND/OR OBSTRUCTIONS TO VISIBILITY.

TXZ118-119-241800-
DALLAS/FORT WORTH METROPLEX

CITY           SKY/WX    TMP DP  RH WIND       PRES   REMARKS
DFW AIRPORT    CLOUDY    59  53  80 S7        29.87F
DALLAS LOVE    TSTM      57  51  80 SE13      29.91F
FTW MEACHAM    CLOUDY    63  51  65 S13       29.86F
DAL-EXECUTIVE  TSTM      53  52  96 S9G17     29.91S VSB 1
FTW-ALLIANCE   PTSUNNY   63  53  70 S13       29.86F
FTW-NAS-JRB    PTSUNNY   64  52  64 S12       29.87F
FTW-SPINKS     PTSUNNY   59  52  77 SE8       29.91F
ARLINGTON      CLOUDY    56  51  84 SE8       29.89F
GRAND PRAIRIE  SUNNY     55  50  82 SE9       29.91F
ADDISON        TSTM      57  50  77 SE9G18    29.90F
MESQUITE       LGT RAIN  57  50  77 SW7       29.93S FOG
LANCASTER      TSTM      56  51  82 SW6       29.95F
$$

TXZ091>094-102>105-117-120-121-131>134-241800-
NORTH CENTRAL TEXAS

CITY           SKY/WX    TMP DP  RH WIND       PRES   REMARKS
SHRMAN/DENISON LGT RAIN  56  53  89 S14       29.88S
GAINESVILLE    CLOUDY    64  57  76 S20       29.86F
BOWIE          SUNNY     74  39  29 S16G24    29.82F
BRIDGEPORT     MOSUNNY   72  40  31 S15G22    29.86S
DECATUR        MOSUNNY   71  42  35 S14       29.85S
DENTON         CLOUDY    62  55  77 S13       29.87F
MCKINNEY       RAIN      57  55  93 S14       29.90F FOG
BONHAM         LGT RAIN  55  54  94 SW6       29.90F
GREENVILLE     LGT RAIN  61  55  82 W14G24    29.94R
ROCKWALL       RAIN      59  55  85 SW12G17   29.93S
TERRELL        LGT RAIN  58  52  80 W14       29.95R
WAXAHACHIE     RAIN      54  52  92 SW3       29.96S
CLEBURNE       CLOUDY    59  55  88 S8        29.91F
GRANBURY       CLOUDY    68  55  63 S12       29.89F
$$

TXZ083>090-098>101-113>116-127>130-139>142-154-155-241800-
WESTERN NORTH TEXAS

CITY           SKY/WX    TMP DP  RH WIND       PRES   REMARKS
WICHITA FALLS  MOSUNNY   73  31  21 S21G30    29.77F
WF-KICKAPOO    SUNNY     72  28  19 SW13G24   29.80S
VERNON         SUNNY     73  14  10 SW23G32   29.75F
ABILENE        SUNNY     69  29  22 SW21G29   29.87F
ABILENE-DYESS  SUNNY     70  32  24 W24G31    29.86F
GRAHAM         SUNNY     75  31  19 S17G25    29.81F
BRECKENRIDGE   SUNNY     75  23  14 SW24G38   29.85F
CISCO          SUNNY     73  28  19 SW24G32   29.87F
RANGER         SUNNY     72  39  30 SW15G22   29.88F
MINERAL WELLS  MOSUNNY   69  53  56 SE13      29.84F
STEPHENVILLE   MOSUNNY   70  51  51 SW13G18   29.91F
COMANCHE       SUNNY     72  39  30 SW14      29.91F
BROWNWOOD      SUNNY     72  32  23 SW16G26   29.92F
COLEMAN        SUNNY     71  29  21 SW24G32   29.92F
$$

TXZ143>147-156>162-174-175-241800-
CENTRAL TEXAS

CITY           SKY/WX    TMP DP  RH WIND       PRES   REMARKS
WACO           LGT RAIN  60  56  86 W7G16     29.95R
WACO-MCGREGOR  LGT RAIN  61  55  81 W10G18    29.96R
HILLSBORO      RAIN      54  52  92 CALM      29.95S
CORSICANA      CLOUDY    59  53  80 W12       29.95R
MEXIA          LGT RAIN  67  64  88 SE12G20   29.92F
HEARNE         CLOUDY    72  65  80 SE13G23   29.96F
CAMERON        LGT RAIN  69  66  90 S12G17    29.95S
TEMPLE         CLOUDY    63  54  72 W10       29.96R
KILLEEN        CLOUDY    58  54  86 SE6       29.95F
KILLEEN-SKYLRK LGT RAIN  57  55  94 CALM      29.95R
FORT HOOD      CLOUDY    57  55  94 CALM      29.92F
GATESVILLE     PTSUNNY   57  55  94 CALM      29.97R
HAMILTON       PTSUNNY   68  57  68 SW10      29.93F
LAMPASAS       MOSUNNY   68  63  83 W10       29.94S
$$

TXZ095>097-106>112-122>126-135>138-148>153-164>167-241800-
EAST TEXAS

CITY           SKY/WX    TMP DP  RH WIND       PRES   REMARKS
PARIS          CLOUDY    70  59  68 S18G25    29.92F
SULPHUR SPRNGS PTSUNNY   74  60  62 S13G28    29.93F
MOUNT PLEASANT SUNNY     75  59  56 SE26G35   29.96F
GILMER         PTSUNNY   75  59  57 SE17G28   29.96F
MINEOLA        CLOUDY    75  59  57 S15G25    29.92F
TYLER          PTSUNNY   78  60  53 S25G36    29.94F
LONGVIEW       CLOUDY    76  64  66 S22       30.01F
MARSHALL       PTSUNNY   75  61  62 S14G26    30.06F
ATHENS         CLOUDY    72  59  64 S16G30    29.93F
PALESTINE      CLOUDY    74  63  67 S14G25    29.98F
JACKSONVILLE   MOSUNNY   75  61  62 S20G31    30.02F
HENDERSON      PTSUNNY   76  60  58 S18G24    30.02F
CENTER         PTSUNNY   78  64  60 S17G30    30.08R
NACOGDOCHES    CLOUDY   N/A N/A N/A S15G25    30.04R
LUFKIN         CLOUDY    76  62  62 S17G25    30.04S
$$

SUPPLEMENTAL OBSERVATIONS (CENTRAL)

CITY           SKY/WX    TMP DP  RH WIND       PRES   REMARKS
DENISON DAM      N/A     55  52  88 S9          N/A
CADDO GRASSLND   N/A     61  55  82 W9G24       N/A
PAT MAYSE LAKE   N/A    N/A N/A N/A SE21        N/A
GREENVILLE       N/A     72  59  64 S14G24      N/A
CEDAR HILL       N/A     54  50  87 SE10        N/A
ATHENS           N/A     73  59  60 S22G33      N/A
LAKE LIMESTONE   N/A     72  63  73 S9G23       N/A
MCGREGOR         N/A     57  54  88 W8G23       N/A
TEMPLE           N/A     70  66  88 S18G26      N/A
$$

SUPPLEMENTAL OBSERVATIONS (WEST)

CITY           SKY/WX    TMP DP  RH WIND       PRES   REMARKS
MILLERS CREEK    N/A     72  30  21 SW23G31     N/A
POSSUM KINGDOM   N/A     75  23  14 SW20G29     N/A
LBJ GRASSLAND    N/A     73  36  25 S10         N/A
GRANBURY         N/A     68  55  64 S13         N/A
COMANCHE         N/A     72  37  28 SW16G22     N/A
HAMBY            N/A     70  30  23 SW23G30     N/A
IVIE RESERVOIR   N/A     73  30  20 SW22G35     N/A
COLORADO BEND    N/A     68  55  64 W8          N/A
$$

SUPPLEMENTAL OBSERVATIONS (EAST)

CITY           SKY/WX    TMP DP  RH WIND       PRES   REMARKS
CLARKSVILLE      N/A     72  57  60 S21G31      N/A
TEXARKANA        N/A     75  61  60 S10G21      N/A
LINDEN           N/A     73  59  60 S9G17       N/A
CADDO LAKE       N/A     75  61  60 S7G15       N/A
GILMER           N/A     77  59  53 S20G31      N/A
HENDERSON        N/A     75  59  57 S15G23      N/A
LUFKIN           N/A     75  63  64 MISG        N/A
N SABINE NF      N/A     75  66  73 MISG        N/A
S SABINE NF      N/A     75  64  69 W6          N/A
$$

SUPPLEMENTAL OBSERVATIONS ARE A COLLECTION OF AUTOMATED INSTRUMENTS
THAT ARE MAINTAINED BY A VARIETY OF FEDERAL AND STATE AGENCIES.
CERTAIN ELEMENTS...SUCH AS HUMIDITY VALUES AND SUSTAINED WIND
SPEEDS...MAY BE APPROXIMATED.




USA.gov is the U.S. government's official web portal to all federal, state and local government web resources and services.